K8DJB-1 Weather Reports


Display with metric or nautical units.
time (UTC)temp
F
wind
direction
speed
MPH
gust
MPH
rain 1hr
in
rain 24hr
in
rain mn
in
humidity
%
barometer
mb
20191016113426 45 270 10.0 14.0 0.00 0.14 0.00 94 1003.6
20191016112930 44 236 7.0 16.0 0.00 0.14 0.00 94 1003.6
20191016112418 44 290 6.0 16.0 0.00 0.14 0.00 94 1003.7
20191016111927 44 253 8.0 13.0 0.00 0.14 0.00 94 1003.7
20191016111413 44 269 6.0 15.0 0.00 0.14 0.00 94 1003.8
20191016110925 44 298 9.0 15.0 0.00 0.14 0.00 94 1003.9
20191016110414 44 254 7.0 13.0 0.00 0.14 0.00 94 1003.9
20191016105923 44 240 7.0 13.0 0.00 0.14 0.00 93 1003.9
20191016105430 44 250 8.0 13.0 0.00 0.14 0.00 93 1004.0
20191016104918 44 245 8.0 14.0 0.00 0.14 0.00 93 1004.1
20191016104428 44 263 9.0 14.0 0.00 0.14 0.00 92 1004.2
20191016103913 44 260 6.0 15.0 0.00 0.14 0.00 91 1004.2
20191016103421 44 231 9.0 15.0 0.00 0.14 0.00 90 1004.3
20191016102928 44 269 7.0 13.0 0.00 0.14 0.00 89 1004.3
20191016102421 45 244 4.0 19.0 0.00 0.14 0.00 87 1004.4
20191016101930 45 300 12.0 18.0 0.00 0.14 0.00 86 1004.4
20191016100922 45 269 12.0 17.0 0.00 0.14 0.00 84 1004.3
20191016100432 45 286 8.0 21.0 0.00 0.14 0.00 83 1004.4
20191016095916 46 314 10.0 15.0 0.00 0.14 0.00 82 1004.4
20191016095425 46 281 7.0 17.0 0.00 0.14 0.00 82 1004.4
20191016094912 46 296 11.0 17.0 0.00 0.14 0.00 81 1004.3
20191016094422 46 267 7.0 15.0 0.00 0.14 0.00 80 1004.4
20191016093915 46 257 9.0 15.0 0.00 0.14 0.00 80 1004.3
20191016093424 46 294 7.0 13.0 0.00 0.14 0.00 80 1004.4
20191016092929 46 244 6.0 15.0 0.00 0.14 0.00 79 1004.3
20191016092418 46 312 7.0 18.0 0.00 0.14 0.00 79 1004.4
20191016091926 46 286 11.0 20.0 0.00 0.14 0.00 79 1004.3
20191016091432 46 261 8.0 20.0 0.00 0.14 0.00 79 1004.4
20191016090919 46 242 5.0 14.0 0.00 0.14 0.00 80 1004.4
20191016090429 46 290 8.0 20.0 0.00 0.14 0.00 79 1004.4
20191016085917 46 272 7.0 22.0 0.00 0.14 0.00 79 1004.4
20191016085427 46 307 14.0 22.0 0.00 0.14 0.00 79 1004.6
20191016084918 47 285 7.0 15.0 0.00 0.14 0.00 78 1004.5
20191016084428 47 232 6.0 15.0 0.00 0.14 0.00 77 1004.4
20191016083917 47 254 8.0 16.0 0.00 0.14 0.00 77 1004.4
20191016083423 47 227 9.0 16.0 0.00 0.14 0.00 78 1004.4
20191016082927 47 249 10.0 16.0 0.00 0.14 0.00 78 1004.5
20191016082417 47 300 9.0 19.0 0.00 0.14 0.00 78 1004.5
20191016081926 47 292 10.0 21.0 0.00 0.14 0.00 78 1004.4
20191016081414 47 284 9.0 20.0 0.00 0.14 0.00 78 1004.4
20191016080922 47 296 10.0 19.0 0.00 0.14 0.00 77 1004.4
20191016080415 47 281 12.0 19.0 0.00 0.14 0.00 78 1004.5
20191016075924 48 252 8.0 17.0 0.00 0.14 0.00 79 1004.6
20191016075433 47 298 4.0 11.0 0.00 0.14 0.00 79 1004.6
20191016074918 48 292 4.0 10.0 0.00 0.14 0.00 79 1004.6
20191016074427 48 272 4.0 12.0 0.00 0.14 0.00 79 1004.6
20191016073916 48 270 8.0 12.0 0.00 0.14 0.00 80 1004.7
20191016073425 48 263 7.0 16.0 0.00 0.14 0.00 80 1004.8
20191016072913 48 263 6.0 16.0 0.00 0.14 0.00 79 1004.9
20191016072422 48 264 7.0 14.0 0.00 0.14 0.00 80 1004.9
20191016071915 48 241 7.0 18.0 0.00 0.14 0.00 79 1005.0
20191016071424 48 299 11.0 19.0 0.00 0.14 0.00 79 1005.1
20191016070932 49 309 14.0 19.0 0.00 0.14 0.00 79 1005.1
20191016070421 49 243 10.0 17.0 0.00 0.14 0.00 80 1004.9
20191016065926 49 285 10.0 15.0 0.00 0.14 0.00 80 1004.9
20191016065429 49 229 7.0 13.0 0.00 0.14 0.00 81 1004.9
20191016064916 49 248 5.0 17.0 0.00 0.14 0.00 82 1004.9
20191016064425 49 217 9.0 17.0 0.00 0.14 0.00 81 1004.8
20191016063914 49 265 8.0 14.0 0.00 0.14 0.00 82 1004.9
20191016063427 49 264 7.0 14.0 0.00 0.14 0.00 81 1004.9
20191016062915 49 241 7.0 14.0 0.00 0.14 0.00 82 1004.7
20191016062423 49 242 8.0 16.0 0.00 0.14 0.00 82 1004.7
20191016061912 49 284 7.0 11.0 0.00 0.14 0.00 81 1004.8
20191016061418 49 248 4.0 8.0 0.00 0.14 0.00 81 1004.7
20191016060924 49 257 4.0 9.0 0.00 0.14 0.00 81 1004.7
20191016060434 49 292 4.0 11.0 0.00 0.14 0.00 81 1004.7
20191016055918 49 303 5.0 11.0 0.00 0.14 0.00 81 1004.7
20191016055426 49 287 7.0 13.0 0.00 0.14 0.00 81 1004.7
20191016054918 50 291 8.0 13.0 0.00 0.14 0.00 80 1004.8
20191016054428 50 277 8.0 21.0 0.00 0.14 0.00 81 1004.8
20191016053916 50 271 10.0 21.0 0.00 0.14 0.00 81 1004.9
20191016053425 50 289 9.0 17.0 0.00 0.14 0.00 82 1004.9
20191016052914 50 306 12.0 17.0 0.00 0.14 0.00 82 1004.9
20191016052422 50 307 10.0 20.0 0.00 0.14 0.00 82 1004.9
20191016051931 50 306 10.0 22.0 0.00 0.14 0.00 82 1004.9
20191016051419 50 309 10.0 22.0 0.00 0.14 0.00 82 1004.9
20191016050928 50 300 11.0 16.0 0.00 0.14 0.00 83 1004.8
20191016050422 50 270 11.0 18.0 0.00 0.14 0.00 83 1004.9
20191016045931 50 310 12.0 18.0 0.00 0.14 0.00 84 1005.0
20191016045420 50 296 12.0 17.0 0.00 0.14 0.00 84 1004.9
20191016044929 50 289 11.0 18.0 0.00 0.14 0.00 84 1004.9
20191016044418 50 303 10.0 18.0 0.00 0.14 0.00 84 1004.9
20191016043927 50 291 9.0 13.0 0.00 0.14 0.00 85 1005.1
20191016043436 50 279 10.0 15.0 0.00 0.14 0.00 85 1005.1
20191016042921 50 278 11.0 18.0 0.00 0.14 0.00 85 1005.2
20191016042429 50 281 10.0 18.0 0.00 0.14 0.00 85 1005.2
20191016041921 50 307 7.0 19.0 0.00 0.14 0.00 85 1005.2
20191016041430 51 317 11.0 24.0 0.00 0.14 0.00 85 1005.2
20191016040919 51 300 13.0 24.0 0.00 0.14 0.00 85 1005.2
20191016040428 51 300 14.0 20.0 0.00 0.14 0.00 86 1005.3
20191016035916 51 307 11.0 20.0 0.00 0.14 0.14 87 1005.2
20191016035425 51 310 11.0 20.0 0.01 0.14 0.14 87 1005.1
20191016034914 51 302 9.0 22.0 0.01 0.14 0.14 88 1005.1
20191016034423 51 308 15.0 24.0 0.02 0.14 0.14 88 1005.0
20191016033931 52 312 12.0 24.0 0.03 0.14 0.14 88 1004.9
20191016033424 52 304 14.0 24.0 0.03 0.14 0.14 89 1004.9
20191016032933 52 300 13.0 24.0 0.03 0.14 0.14 89 1004.8
20191016032415 53 298 13.0 22.0 0.03 0.14 0.14 91 1004.7
20191016031924 53 305 12.0 26.0 0.03 0.14 0.14 91 1004.6
20191016031433 53 279 11.0 26.0 0.03 0.14 0.14 91 1004.5
20191016030918 54 311 14.0 22.0 0.04 0.14 0.14 91 1004.4
20191016030427 54 300 12.0 28.0 0.04 0.14 0.14 91 1004.3
20191016025917 54 293 16.0 29.0 0.04 0.14 0.14 91 1004.0
20191016025424 55 282 14.0 31.0 0.03 0.13 0.13 90 1004.0
20191016024916 56 284 19.0 31.0 0.03 0.13 0.13 91 1003.9
20191016024425 57 304 12.0 24.0 0.02 0.12 0.12 94 1003.7
20191016023931 58 283 6.0 12.0 0.01 0.11 0.11 95 1003.3
20191016023420 58 267 6.0 14.0 0.02 0.11 0.11 95 1003.2
20191016022928 58 243 6.0 14.0 0.02 0.11 0.11 95 1003.2
20191016022416 58 277 6.0 13.0 0.03 0.11 0.11 95 1003.2
20191016021925 58 239 4.0 9.0 0.03 0.11 0.11 95 1003.1
20191016021415 58 272 2.0 6.0 0.03 0.11 0.11 95 1003.2
20191016020923 58 209 4.0 6.0 0.02 0.10 0.10 95 1003.2
20191016020417 58 206 4.0 6.0 0.02 0.10 0.10 95 1003.3
20191016015925 57 198 4.0 6.0 0.04 0.10 0.10 95 1003.4
20191016015414 57 217 3.0 5.0 0.07 0.10 0.10 95 1003.3
20191016014921 57 213 2.0 4.0 0.09 0.10 0.10 94 1003.5
20191016014431 57 214 2.0 4.0 0.09 0.10 0.10 94 1003.7
20191016013921 57 227 2.0 7.0 0.10 0.10 0.10 94 1003.6
20191016013429 57 191 5.0 9.0 0.09 0.09 0.09 94 1003.8
20191016012917 56 203 5.0 9.0 0.09 0.09 0.09 94 1003.7
20191016012426 56 196 4.0 6.0 0.08 0.08 0.08 94 1003.8
20191016011919 56 189 5.0 6.0 0.08 0.08 0.08 94 1003.9
20191016011429 56 225 3.0 7.0 0.08 0.08 0.08 93 1004.0
20191016010916 56 252 3.0 7.0 0.08 0.08 0.08 93 1004.0
20191016010426 56 254 4.0 10.0 0.08 0.08 0.08 93 1003.9
20191016005916 55 236 6.0 10.0 0.04 0.04 0.04 92 1004.3
20191016005424 55 301 1.0 7.0 0.03 0.03 0.03 91 1004.0
20191016004935 55 295 3.0 8.0 0.01 0.01 0.01 90 1004.2
20191016004421 55 294 4.0 8.0 0.01 0.01 0.01 89 1004.1
20191016003931 55 140 1.0 3.0 0.00 0.00 0.00 89 1003.5
20191016003424 55 244 0.0 0.0 0.00 0.00 0.00 89 1003.6
20191016002930 55 244 0.0 1.0 0.00 0.00 0.00 89 1003.9
20191016002418 55 244 0.0 2.0 0.00 0.00 0.00 89 1004.0
20191016001926 55 244 1.0 3.0 0.00 0.00 0.00 88 1004.1
20191016001436 55 148 2.0 3.0 0.00 0.00 0.00 88 1004.2
20191016000919 56 148 0.0 0.0 0.00 0.00 0.00 87 1004.2
20191016000425 56 148 0.0 0.0 0.00 0.00 0.00 86 1004.3
20191015235912 56 148 0.0 0.0 0.00 0.00 0.00 85 1004.3
20191015235422 56 148 0.0 0.0 0.00 0.00 0.00 85 1004.4
20191015234914 56 148 0.0 0.0 0.00 0.00 0.00 85 1004.6
20191015234423 56 148 0.0 0.0 0.00 0.00 0.00 84 1004.7
20191015233931 57 148 0.0 0.0 0.00 0.00 0.00 83 1004.7
20191015233420 57 148 0.0 0.0 0.00 0.00 0.00 82 1004.7
20191015232928 57 148 0.0 0.0 0.00 0.00 0.00 81 1004.8
20191015232416 57 148 0.0 0.0 0.00 0.00 0.00 80 1004.8
20191015231923 57 148 0.0 0.0 0.00 0.00 0.00 80 1004.9
20191015231433 57 148 0.0 0.0 0.00 0.00 0.00 81 1005.2
20191015230920 57 148 0.0 0.0 0.00 0.00 0.00 81 1005.4
20191015230413 58 148 0.0 0.0 0.00 0.00 0.00 79 1005.4
20191015225920 58 148 0.0 0.0 0.00 0.00 0.00 78 1005.4
20191015225430 59 148 0.0 0.0 0.00 0.00 0.00 76 1005.4
20191015224918 59 148 0.0 2.0 0.00 0.00 0.00 75 1005.4
20191015224427 59 148 0.0 2.0 0.00 0.00 0.00 75 1005.4
20191015223915 59 149 0.0 0.0 0.00 0.00 0.00 75 1005.5
20191015223425 59 149 0.0 0.0 0.00 0.00 0.00 75 1005.5
20191015222913 60 149 0.0 0.0 0.00 0.00 0.00 74 1005.5
20191015222422 60 149 0.0 0.0 0.00 0.00 0.00 72 1005.4
20191015221915 60 149 0.0 0.0 0.00 0.00 0.00 71 1005.3
20191015221424 60 149 0.0 0.0 0.00 0.00 0.00 70 1005.3
20191015220912 61 149 0.0 3.0 0.00 0.00 0.00 70 1005.3
20191015220422 61 149 0.0 3.0 0.00 0.00 0.00 68 1005.3
20191015215930 61 161 1.0 3.0 0.00 0.00 0.00 67 1005.3
20191015215419 61 162 2.0 5.0 0.00 0.00 0.00 67 1005.2
20191015214926 61 166 2.0 9.0 0.00 0.00 0.00 66 1005.2
20191015214413 61 140 2.0 9.0 0.00 0.00 0.00 66 1005.0
20191015213921 61 150 3.0 7.0 0.00 0.00 0.00 66 1005.1
20191015213414 61 159 2.0 8.0 0.00 0.00 0.00 67 1004.9
20191015212920 61 164 4.0 8.0 0.00 0.00 0.00 67 1005.0
20191015212430 61 138 4.0 9.0 0.00 0.00 0.00 66 1005.0
20191015211918 61 155 4.0 9.0 0.00 0.00 0.00 67 1005.1
20191015211428 61 155 5.0 8.0 0.00 0.00 0.00 67 1005.2
20191015210915 61 119 4.0 9.0 0.00 0.00 0.00 67 1005.3
20191015210423 60 157 3.0 9.0 0.00 0.00 0.00 68 1005.3
20191015205928 60 150 2.0 5.0 0.00 0.00 0.00 68 1005.4
20191015205418 60 153 1.0 5.0 0.00 0.00 0.00 68 1005.5
20191015204925 60 167 3.0 6.0 0.00 0.00 0.00 67 1005.6
20191015204415 60 169 1.0 7.0 0.00 0.00 0.00 67 1005.7
20191015203923 60 146 2.0 7.0 0.00 0.00 0.00 67 1005.8
20191015203433 60 132 2.0 5.0 0.00 0.00 0.00 68 1005.9
20191015202919 59 151 3.0 5.0 0.00 0.00 0.00 68 1006.0
20191015202428 59 175 2.0 4.0 0.00 0.00 0.00 69 1006.1
20191015201916 59 143 2.0 4.0 0.00 0.00 0.00 69 1006.2
20191015201426 59 128 1.0 4.0 0.00 0.00 0.00 69 1006.3
20191015200914 59 128 2.0 4.0 0.00 0.00 0.00 69 1006.4
20191015200423 58 138 1.0 5.0 0.00 0.00 0.00 70 1006.4
20191015195915 58 134 3.0 6.0 0.00 0.00 0.00 70 1006.6
20191015195424 58 136 1.0 5.0 0.00 0.00 0.00 70 1006.7
20191015194928 58 82 2.0 7.0 0.00 0.00 0.00 69 1006.8
20191015194417 58 138 1.0 3.0 0.00 0.00 0.00 70 1007.0
20191015193924 58 129 1.0 4.0 0.00 0.00 0.00 69 1007.2
20191015193433 58 132 2.0 4.0 0.00 0.00 0.00 68 1007.4
20191015192918 57 154 1.0 5.0 0.00 0.00 0.00 69 1007.4
20191015192428 57 95 1.0 5.0 0.00 0.00 0.00 69 1007.4
20191015191935 57 100 1.0 2.0 0.00 0.00 0.00 70 1007.6
20191015191425 57 92 0.0 2.0 0.00 0.00 0.00 71 1007.7
20191015190929 56 87 0.0 3.0 0.00 0.00 0.00 71 1007.8
20191015190419 56 87 1.0 4.0 0.00 0.00 0.00 70 1008.0
20191015185924 56 71 1.0 4.0 0.00 0.00 0.00 69 1008.2
20191015185413 56 51 2.0 3.0 0.00 0.00 0.00 71 1008.5
20191015184920 57 19 1.0 4.0 0.00 0.00 0.00 70 1008.6
20191015184427 57 5 2.0 4.0 0.00 0.00 0.00 68 1008.8
20191015183915 57 122 1.0 4.0 0.00 0.00 0.00 67 1008.6
20191015183424 57 125 0.0 7.0 0.00 0.00 0.00 66 1008.5
20191015182929 58 167 2.0 8.0 0.00 0.00 0.00 63 1008.5
20191015182419 58 158 3.0 8.0 0.00 0.00 0.00 63 1008.6
20191015181927 58 173 5.0 11.0 0.00 0.00 0.00 62 1008.7
20191015181414 58 135 6.0 11.0 0.00 0.00 0.00 62 1008.8
20191015180922 57 142 4.0 10.0 0.00 0.00 0.00 62 1008.8
20191015180431 57 146 6.0 11.0 0.00 0.00 0.00 63 1008.9
20191015175916 57 170 3.0 10.0 0.00 0.00 0.00 65 1009.0
20191015175426 57 151 3.0 7.0 0.00 0.00 0.00 65 1009.1
20191015174934 56 148 0.0 12.0 0.00 0.00 0.00 66 1009.1
20191015174420 56 115 5.0 11.0 0.00 0.00 0.00 66 1009.2
20191015173929 56 165 3.0 11.0 0.00 0.00 0.00 66 1009.4
20191015173418 56 74 3.0 8.0 0.00 0.00 0.00 68 1009.4
20191015172923 56 125 4.0 10.0 0.00 0.00 0.00 69 1009.6
20191015172432 55 114 3.0 10.0 0.00 0.00 0.00 68 1010.0
20191015171919 55 130 3.0 10.0 0.00 0.00 0.00 68 1010.2
20191015171426 55 145 4.0 10.0 0.00 0.00 0.00 68 1010.5
20191015170914 55 157 6.0 9.0 0.00 0.00 0.00 68 1010.9
20191015170423 55 159 4.0 8.0 0.00 0.00 0.00 68 1011.1
20191015165931 55 153 5.0 9.0 0.00 0.00 0.00 66 1011.1
20191015165424 55 151 2.0 9.0 0.00 0.00 0.00 65 1011.2
20191015164932 56 156 6.0 9.0 0.00 0.00 0.00 63 1011.3
20191015164421 56 94 3.0 13.0 0.00 0.00 0.00 63 1011.4
20191015163929 56 109 5.0 13.0 0.00 0.00 0.00 62 1011.7
20191015163417 56 173 5.0 17.0 0.00 0.00 0.00 62 1012.0
20191015162924 55 182 6.0 17.0 0.00 0.00 0.00 63 1012.0
20191015162414 55 163 8.0 10.0 0.00 0.00 0.00 63 1011.9
20191015161922 55 167 4.0 9.0 0.00 0.00 0.00 65 1012.0
20191015161432 55 175 5.0 17.0 0.00 0.00 0.00 65 1012.3
20191015160920 55 172 7.0 17.0 0.00 0.00 0.00 64 1012.3
20191015160426 55 134 8.0 17.0 0.00 0.00 0.00 67 1012.5
20191015155914 54 157 7.0 14.0 0.00 0.00 0.00 68 1012.4
20191015155423 53 158 6.0 12.0 0.00 0.00 0.00 68 1012.6
20191015154930 52 153 6.0 11.0 0.00 0.00 0.00 68 1012.5
20191015154418 52 140 4.0 8.0 0.00 0.00 0.00 69 1012.5
20191015153926 52 153 4.0 10.0 0.00 0.00 0.00 69 1012.8
20191015153415 52 185 5.0 11.0 0.00 0.00 0.00 69 1013.0
20191015152923 52 161 7.0 11.0 0.00 0.00 0.00 68 1012.7
20191015152417 52 123 6.0 11.0 0.00 0.00 0.00 68 1013.2
20191015151925 52 182 5.0 12.0 0.00 0.00 0.00 69 1013.7
20191015151434 52 161 5.0 14.0 0.00 0.00 0.00 69 1013.9
20191015150918 52 146 8.0 11.0 0.00 0.00 0.00 67 1014.0
20191015150428 52 140 7.0 12.0 0.00 0.00 0.00 68 1014.0
20191015145916 51 153 6.0 13.0 0.00 0.00 0.00 69 1014.1
20191015145426 51 157 6.0 13.0 0.00 0.00 0.00 71 1014.3
20191015144914 50 151 8.0 14.0 0.00 0.00 0.00 69 1014.3
20191015144423 50 159 8.0 16.0 0.00 0.00 0.00 70 1014.4
20191015143915 50 169 13.0 16.0 0.00 0.00 0.00 70 1014.4
20191015143424 50 180 9.0 15.0 0.00 0.00 0.00 73 1014.4
20191015142933 49 188 12.0 15.0 0.00 0.00 0.00 72 1014.1
20191015142420 49 189 8.0 13.0 0.00 0.00 0.00 74 1014.0
20191015141924 48 148 9.0 16.0 0.00 0.00 0.00 74 1014.0
20191015141430 48 157 11.0 16.0 0.00 0.00 0.00 75 1014.0
20191015140918 47 163 7.0 12.0 0.00 0.00 0.00 77 1014.0
20191015140427 47 186 8.0 15.0 0.00 0.00 0.00 78 1014.0
20191015135914 46 163 9.0 13.0 0.00 0.00 0.00 77 1014.0
20191015135423 46 167 8.0 14.0 0.00 0.00 0.00 78 1014.0
20191015134915 46 168 7.0 15.0 0.00 0.00 0.00 78 1014.1
20191015134424 45 130 4.0 13.0 0.00 0.00 0.00 79 1014.1
20191015133930 45 148 8.0 13.0 0.00 0.00 0.00 79 1014.2
20191015133419 44 163 8.0 12.0 0.00 0.00 0.00 80 1014.4
20191015132927 44 178 7.0 12.0 0.00 0.00 0.00 80 1014.4
20191015132434 44 187 5.0 10.0 0.00 0.00 0.00 82 1014.4
20191015131918 43 178 3.0 9.0 0.00 0.00 0.00 83 1014.5
20191015131428 42 150 5.0 9.0 0.00 0.00 0.00 84 1014.6
20191015130932 42 169 4.0 9.0 0.00 0.00 0.00 84 1014.7
20191015130425 41 158 4.0 10.0 0.00 0.00 0.00 85 1014.7
20191015125930 41 153 3.0 10.0 0.00 0.00 0.00 85 1014.8
20191015125419 41 149 3.0 7.0 0.00 0.00 0.00 86 1014.8
20191015124926 40 206 2.0 7.0 0.00 0.00 0.00 86 1014.9
20191015124416 40 161 2.0 8.0 0.00 0.00 0.00 87 1015.0
20191015123921 40 172 2.0 8.0 0.00 0.00 0.00 88 1015.1
20191015123431 40 140 2.0 8.0 0.00 0.00 0.00 88 1015.3
20191015122918 39 124 2.0 4.0 0.00 0.00 0.00 88 1015.3
20191015122427 39 147 1.0 5.0 0.00 0.00 0.00 88 1015.4
20191015121920 39 153 1.0 4.0 0.00 0.00 0.00 89 1015.5
20191015121428 39 146 2.0 7.0 0.00 0.00 0.00 89 1015.6
20191015120916 39 145 2.0 7.0 0.00 0.00 0.00 90 1015.8
20191015120424 39 134 1.0 6.0 0.00 0.00 0.00 90 1016.0
20191015115932 39 146 1.0 3.0 0.00 0.00 0.00 90 1016.0
20191015115421 39 182 0.0 5.0 0.00 0.00 0.00 91 1016.2
20191015114929 39 182 1.0 5.0 0.00 0.00 0.00 92 1016.3
20191015114416 39 159 1.0 4.0 0.00 0.00 0.00 92 1016.4
20191015113921 39 148 0.0 4.0 0.00 0.00 0.00 93 1016.4